Regional Weather Roundup
Issued by NWS

Home | Current Version | Previous Version | Text Only | Print | Product List | Glossary On
Versions: 1 2 3 4 5 6 7 8 9 10 11 12 13 14 15 16 17 18 19 20 21 22 23 24 25 26 27
000
ASUS42 KTBW 190217
RWRFL
FLORIDA REGIONAL WEATHER ROUNDUP
NATIONAL WEATHER SERVICE TAMPA BAY RUSKIN FL
1000 PM EDT WED OCT 18 2017

NOTE: "FAIR" INDICATES FEW OR NO CLOUDS BELOW 12,000 FEET WITH NO
SIGNIFICANT WEATHER AND/OR OBSTRUCTIONS TO VISIBILITY.

FLZ001>010-012>015-112-114-115-190300-
PANHANDLE FLORIDA

CITY           SKY/WX    TMP DP  RH WIND       PRES   REMARKS
PENSACOLA      CLEAR     70  57  63 NE5       30.18S
PENSACOLA NAS  CLEAR     65  57  75 N6        30.18R
MILTON NAS     CLEAR     63  57  81 NE7       30.19
CRESTVIEW      CLEAR     62  56  80 NE5       30.21S
DUKE FIELD     CLEAR     60  55  83 CALM      30.19S
VALPARAISO     CLEAR     65  55  70 N5        30.18S
MARY ESTHER    CLEAR     64  58  81 N6        30.17R
PANAMA CITY    FAIR      67  58  72 N6        30.18R
TYNDALL AFB    CLEAR     72  60  67 NE5       30.19R
APALACHICOLA   CLOUDY    71  66  84 NE6       30.18R

STATION/POSITION SKY/WX   TEMP    WIND        PRES    WAVE   SWELL
                          AIR SEA DIR/SP/G            HT/PER HT/PER
                          (F)     (DEG/KT/KT) (MB)    (FT/S) (FT/S)
30.1N   87.6W              75 79   60/ 10/ 12 1021.4R   2/ 6   2/ 6
29.2N   88.2W              75 82   60/ 14/ 17 1021.4R   4/ 7   2/ 7
28.8N   86.0W              79 82   60/ 19/ 23 1019.8R   5/ 6
PANAMA CITY BEAC           72 79   50/  7/ 10 1022.5R
TOWER C                    76      60/ 24/ 26 1021.6R
28.5N   84.5W              80 81   80/ 19/ 23 1019.4R   4/ 6

$$
FLZ011-016>038-118-127-128-134-139-239-190300-
NORTH FLORIDA

CITY           SKY/WX    TMP DP  RH WIND       PRES   REMARKS
MARIANNA       PTCLDY    66  56  70 NE6       30.20R
TALLAHASSEE    CLEAR     72  60  66 NE6       30.20R
LIVE OAK       CLEAR     68  64  88 NE8       30.22R
CROSS CITY     CLEAR     70  65  82 NE8       30.23R
LAKE CITY      FAIR      64  64 100 NE7       30.20S
GAINESVILLE    CLEAR     69  65  86 N12       30.20R
WILLISTON      CLEAR     73  68  83 CALM      30.17R
PALATKA        CLOUDY    72  72 100 NE8       30.17S
MAYPORT NAS    CLOUDY    75  69  81 NE21G28   30.18R
JACKSONVILLE   MOCLDY    71  67  87 N8        30.19S
JAX NAS        MOCLDY    74  68  81 N15       30.19R
JAX CECIL      MOCLDY    70  68  94 NE9       30.19R
ST AUGUSTINE   CLOUDY    73  69  87 NE16G23   30.18S
PALM COAST     CLOUDY    74  69  85 NE8       30.14S

STATION/POSITION SKY/WX   TEMP    WIND        PRES    WAVE   SWELL
                          AIR SEA DIR/SP/G            HT/PER HT/PER
                          (F)     (DEG/KT/KT) (MB)    (FT/S) (FT/S)
SHELL POINT      NOT AVBL
KEATON BEACH               70      50/  6/  8 1021.9R
CEDAR KEY                  72      50/ 10/ 12 1021.5R
FERNANDINA                 74 77   20/  8/ 14 1023.2R
30.7N   81.3W                 78                N/A     7/ 7   2/11
MAYPORT                    75 78   40/ 18/ 22 1022.4R
31.4N   80.9W              74 78   40/ 21/ 25 1022.3R   7/ 7   3/10
ST AUGUSTINE               75 78   30/ 18/ 21 1021.5R

$$
FLZ040-043>046-052-053-057-058-063-144-190300-
INTERIOR CENTRAL FLORIDA

CITY           SKY/WX    TMP DP  RH WIND       PRES   REMARKS
OCALA          FOG       72  66  83 N5        30.17R VSB 1
THE VILLAGES     N/A     72  70  94 CALM      30.05S
LEESBURG       CLEAR     73  69  87 N7        30.14S
SANFORD        CLEAR     73  69  87 N8        30.12S
ORLANDO INTL   PTCLDY    72  67  84 N7        30.12S
KISSIMMEE      PTCLDY    75  66  73 N6        30.12
WINTER HAVEN     N/A    N/A N/A N/A MISG      30.12S
LAKELAND       PTCLDY    73  64  73 NE8       30.12S
BARTOW         FAIR      73  64  73 NE10      30.11F
SEBRING        FAIR      75  69  81 NE9       30.09S
OKEECHOBEE     CLEAR     72  70  94 N3        30.07S

$$
FLZ041-047-054-059-064-141-147-190300-
EAST CENTRAL FLORIDA

CITY           SKY/WX    TMP DP  RH WIND       PRES   REMARKS
DAYTONA BEACH  PTCLDY    76  71  85 NE14      30.13S
DELAND         MOCLDY    72  70  94 N7        30.13S
NEW SMYRNA BEA PTCLDY    75  68  78 E8        30.14R
JFK SPACE CTR  PTCLDY    77  73  87 NE10      30.10S
CAPE CANAVERAL MOCLDY    78  70  75 NE12      30.09S
PATRICK AFB    PTCLDY    79  71  77 NE16      30.09R
MELBOURNE      PTCLDY    79  71  76 NE15      30.09S
VERO BEACH     PTCLDY    78  70  76 NE15      30.07S
FT PIERCE      CLEAR     79  71  76 NE7G16    30.06S

STATION/POSITION SKY/WX   TEMP    WIND        PRES    WAVE   SWELL
                          AIR SEA DIR/SP/G            HT/PER HT/PER
                          (F)     (DEG/KT/KT) (MB)    (FT/S) (FT/S)
28.5N   80.2W              80 82   50/ 17/ 21 1018.8R   8/ 9   7/ 9
TRIDENT PIER               77 81   30/  8/ 11 1020.9R
28.4N   80.5W                 81                N/A     5/11   2/11
27.5N   80.2W                 81                N/A     8/10   2/11

$$
FLZ050-056-061-142-242-148-248-149-249-151-251-155-255-
160-260-190300-
WEST CENTRAL FLORIDA

CITY           SKY/WX    TMP DP  RH WIND       PRES   REMARKS
CRYSTAL RIVER  FAIR      72  64  78 NE7       30.15R
INVERNESS      FAIR      72  68  88 N8        30.15S
BROOKSVILLE    CLEAR     72  65  78 NE6       30.14R
CLEARWATER AIR FAIR      73  63  68 NE6       30.12S
ST PETE CLEARW CLEAR     77  66  68 NE10      30.11S
TAMPA INTL     PTCLDY    76  64  66 NE6       30.12R
TAMPA EXEC     MOCLDY    72  68  88 N3        30.12S
PLANT CITY     PTCLDY    72  64  78 N5        30.13F
PETER O KNIGHT PTCLDY    72  64  78 NE12      30.11S
ST PETERSBURG  CLEAR     77  67  71 E17       30.10R
SARASOTA       CLEAR     75  64  68 NE12      30.08S
VENICE         FAIR      75  70  83 NE10      30.09R

STATION/POSITION SKY/WX   TEMP    WIND        PRES    WAVE   SWELL
                          AIR SEA DIR/SP/G            HT/PER HT/PER
                          (F)     (DEG/KT/KT) (MB)    (FT/S) (FT/S)
CLEARWATER BEACH           76 80   40/  6/ 11 1019.9R
MIDDLE TAMPA BAY           78      70/ 17/ 22 1019.4S
VENICE                     75 82   50/ 10/ 13 1018.8R

$$
FLZ066-069-070-075>078-162-262-165-265-190300-
SOUTHWEST FLORIDA AND KEYS

CITY           SKY/WX    TMP DP  RH WIND       PRES   REMARKS
PUNTA GORDA    CLEAR     74  69  85 NE12      30.09R
FT MYERS       CLEAR     74  70  87 NE10      30.06R
SOUTHWEST INTL CLEAR     75  72  90 NE9       30.07R
NAPLES         PTCLDY    77  72  84 NE13G20   30.05R
MARCO ISLAND     N/A     78  72  81 NE9       30.06R
IMMOKALEE      MOCLDY    75  72  88 N7        30.07R
MARATHON       PTCLDY    81  72  74 E5        30.01R
KEY WEST NAS   MOCLDY    80  77  90 NE3       30.03R
KEY WEST INTL  PTCLDY    80  75  84 NE3       30.03R

STATION/POSITION SKY/WX   TEMP    WIND        PRES    WAVE   SWELL
                          AIR SEA DIR/SP/G            HT/PER HT/PER
                          (F)     (DEG/KT/KT) (MB)    (FT/S) (FT/S)
NAPLES                        83   40/  6/ 12 1017.7R
DRY TORTUGAS               82      50/  7/  9 1017.0R
SAND KEY                   81                 1017.3R
MOLASSES REEF              81 83   20/  7/  8 1016.2R

$$
FLZ067-068-071>074-168-172>174-190300-
SOUTHEAST FLORIDA

CITY           SKY/WX    TMP DP  RH WIND       PRES   REMARKS
W PALM BEACH   LGT RAIN  79  74  84 NE8       30.04S
BOCA RATON     PTCLDY    77  73  88 NE13      30.04R
FT LAUDER-EXEC RAIN      74  74 100 N6        30.03S FOG
FT LAUDERDALE  HVY RAIN  75  75 100 N10       30.02S FOG
POMPANO BEACH  CLOUDY    79  75  87 N7        30.03S
PEMBROKE PINES PTCLDY    79  73  82 N10       30.04S
OPA LOCKA      PTCLDY    79  74  84 NE5       30.03S
MIAMI          CLOUDY    81  74  79 NE5       30.03R
WEST KENDALL   PTCLDY    76  75  97 N5        30.03R
HOMESTEAD      CLOUDY    79  76  91 NW5       30.02R

STATION/POSITION SKY/WX   TEMP    WIND        PRES    WAVE   SWELL
                          AIR SEA DIR/SP/G            HT/PER HT/PER
                          (F)     (DEG/KT/KT) (MB)    (FT/S) (FT/S)
PORT EVERGLADES            78      20/  5/ 15 1016.6F
VIRGINIA KEY                       70/  5/  8   N/A
LAKE WORTH                 79 83   40/ 20/ 23 1018.0S
FOWEY ROCKS                79 83   50/  9/  9 1017.2R
SETTLEMENT POINT           80      60/  7/  8 1016.9S

$$





USA.gov is the U.S. government's official web portal to all federal, state and local government web resources and services.